When you browse on this site, cookies collect data to enhance your experience and personalize the content and advertising you see.
Visit our Privacy Policy to learn more. By continuing to use the site, you agree to this use of cookies and data.
  • In Switzerland
  • List of Countries
  • For 7 days
  • Water Temperature
  • Weather Map
  • Weather Widgets
  • user-avatar
    Login

    Hourly Weather Tibissa

    Today, 10 April, Friday

    Time Temperature Precipitation Wind Pressure Humidity
    00:00 +12°C° 0 mm 2 mps 687 mmHg 79%
    01:00 +12°C° 0 mm 1 mps 687 mmHg 81%
    02:00 +12°C° 0 mm 1 mps 686 mmHg 82%
    03:00 +11°C° 0 mm 1 mps 686 mmHg 83%
    04:00 +11°C° 0 mm 1 mps 685 mmHg 84%
    05:00 +11°C° 0 mm 1 mps 686 mmHg 83%
    06:00 +12°C° 0 mm 1 mps 686 mmHg 82%
    07:00 +12°C° 0 mm 1 mps 687 mmHg 79%
    08:00 +14°C° 0 mm 2 mps 687 mmHg 73%
    09:00 +15°C° 0 mm 2 mps 688 mmHg 67%
    10:00 +16°C° 0 mm 3 mps 688 mmHg 61%
    11:00 +15°C° 0.3 mm 4 mps 688 mmHg 59%
    12:00 +16°C° 0.3 mm 5 mps 688 mmHg 57%
    13:00 +16°C° 0 mm 6 mps 688 mmHg 55%
    14:00 +16°C° 0.1 mm 6 mps 687 mmHg 55%
    15:00 +16°C° 0.1 mm 6 mps 687 mmHg 56%
    16:00 +17°C° 0.1 mm 6 mps 686 mmHg 56%
    17:00 +15°C° 0.7 mm 5 mps 686 mmHg 63%
    18:00 +14°C° 0.7 mm 4 mps 686 mmHg 69%
    19:00 +13°C° 0.7 mm 3 mps 686 mmHg 76%
    20:00 +13°C° 0.7 mm 3 mps 687 mmHg 78%
    21:00 +14°C° 0.7 mm 2 mps 687 mmHg 80%
    22:00 +13°C° 0.7 mm 2 mps 687 mmHg 82%
    23:00 +13°C° 0.3 mm 2 mps 687 mmHg 84%

    Tomorrow, 11 April, Saturday

    Time Temperature Precipitation Wind Pressure Humidity
    00:00 +13°C° 0.3 mm 1 mps 687 mmHg 85%
    01:00 +13°C° 0.3 mm 1 mps 687 mmHg 86%
    02:00 +13°C° 0.1 mm 1 mps 687 mmHg 86%
    03:00 +13°C° 0.1 mm 1 mps 687 mmHg 86%
    04:00 +13°C° 0.1 mm 1 mps 687 mmHg 86%
    05:00 +12°C° 0.1 mm 1 mps 687 mmHg 85%
    06:00 +12°C° 0.1 mm 1 mps 687 mmHg 85%
    07:00 +12°C° 0.1 mm 1 mps 687 mmHg 85%
    08:00 +13°C° 0.1 mm 1 mps 687 mmHg 82%
    09:00 +13°C° 0.1 mm 1 mps 688 mmHg 78%
    10:00 +13°C° 0.1 mm 1 mps 688 mmHg 75%
    11:00 +14°C° 0.2 mm 2 mps 688 mmHg 71%
    12:00 +15°C° 0.2 mm 2 mps 688 mmHg 66%
    13:00 +16°C° 0.2 mm 2 mps 688 mmHg 62%
    14:00 +16°C° 0.2 mm 3 mps 688 mmHg 60%
    15:00 +17°C° 0.2 mm 3 mps 687 mmHg 59%
    16:00 +17°C° 0.2 mm 3 mps 687 mmHg 58%
    17:00 +16°C° 0.1 mm 3 mps 687 mmHg 60%
    18:00 +16°C° 0.1 mm 3 mps 687 mmHg 63%
    19:00 +14°C° 0.1 mm 3 mps 687 mmHg 66%
    20:00 +14°C° 0 mm 4 mps 687 mmHg 68%
    21:00 +13°C° 0 mm 4 mps 688 mmHg 71%
    22:00 +12°C° 0 mm 4 mps 688 mmHg 73%
    23:00 +12°C° 0 mm 3 mps 688 mmHg 76%

    Day after tomorrow, 12 April, Sunday

    Time Temperature Precipitation Wind Pressure Humidity
    00:00 +12°C° 0 mm 2 mps 688 mmHg 79%
    01:00 +11°C° 0 mm 1 mps 687 mmHg 81%
    02:00 +11°C° 0 mm 1 mps 687 mmHg 82%
    03:00 +11°C° 0 mm 1 mps 687 mmHg 83%
    04:00 +10°C° 0 mm 1 mps 686 mmHg 84%
    05:00 +11°C° 0 mm 1 mps 687 mmHg 82%
    06:00 +11°C° 0 mm 1 mps 687 mmHg 79%
    07:00 +12°C° 0 mm 1 mps 687 mmHg 77%
    08:00 +13°C° 0 mm 2 mps 688 mmHg 70%
    09:00 +15°C° 0 mm 2 mps 688 mmHg 63%
    10:00 +16°C° 0 mm 3 mps 688 mmHg 56%
    11:00 +17°C° 0 mm 3 mps 688 mmHg 53%
    12:00 +18°C° 0 mm 4 mps 688 mmHg 50%
    13:00 +19°C° 0 mm 4 mps 688 mmHg 47%
    14:00 +19°C° 0 mm 4 mps 687 mmHg 47%
    15:00 +19°C° 0 mm 4 mps 687 mmHg 46%
    16:00 +19°C° 0 mm 4 mps 686 mmHg 46%
    17:00 +18°C° 0 mm 4 mps 686 mmHg 48%
    18:00 +17°C° 0 mm 4 mps 686 mmHg 51%
    19:00 +17°C° 0 mm 4 mps 685 mmHg 54%
    20:00 +15°C° 0 mm 4 mps 685 mmHg 57%
    21:00 +14°C° 0 mm 3 mps 685 mmHg 60%
    22:00 +13°C° 0 mm 3 mps 685 mmHg 62%
    23:00 +13°C° 0 mm 3 mps 685 mmHg 64%

    13 April, Monday

    Time Temperature Precipitation Wind Pressure Humidity
    00:00 +12°C° 0 mm 3 mps 685 mmHg 66%
    01:00 +12°C° 0 mm 3 mps 684 mmHg 68%
    02:00 +13°C° 0 mm 2 mps 684 mmHg 68%
    03:00 +12°C° 0 mm 2 mps 683 mmHg 68%
    04:00 +12°C° 0 mm 2 mps 683 mmHg 68%
    05:00 +12°C° 0 mm 2 mps 683 mmHg 65%
    06:00 +12°C° 0 mm 2 mps 683 mmHg 61%
    07:00 +13°C° 0 mm 2 mps 683 mmHg 58%
    08:00 +14°C° 0 mm 3 mps 683 mmHg 52%
    09:00 +17°C° 0 mm 4 mps 684 mmHg 45%
    10:00 +19°C° 0 mm 5 mps 684 mmHg 38%
    11:00 +20°C° 0 mm 7 mps 683 mmHg 38%
    12:00 +21°C° 0 mm 8 mps 683 mmHg 38%
    13:00 +22°C° 0 mm 10 mps 683 mmHg 38%
    14:00 +22°C° 0 mm 10 mps 682 mmHg 37%
    15:00 +23°C° 0 mm 10 mps 682 mmHg 36%
    16:00 +23°C° 0 mm 10 mps 681 mmHg 36%
    17:00 +22°C° 0 mm 10 mps 681 mmHg 41%
    18:00 +19°C° 0 mm 9 mps 680 mmHg 47%
    19:00 +17°C° 0 mm 8 mps 680 mmHg 52%
    20:00 +17°C° 0 mm 7 mps 680 mmHg 55%
    21:00 +16°C° 0 mm 5 mps 680 mmHg 57%
    22:00 +15°C° 0 mm 4 mps 680 mmHg 59%
    23:00 +16°C° 0 mm 3 mps 680 mmHg 61%

    14 April, Tuesday

    Time Temperature Precipitation Wind Pressure Humidity
    00:00 +15°C° 0 mm 2 mps 680 mmHg 62%
    01:00 +15°C° 0 mm 1 mps 679 mmHg 64%
    02:00 +15°C° 0 mm 1 mps 679 mmHg 64%
    03:00 +14°C° 0 mm 1 mps 679 mmHg 65%
    04:00 +14°C° 0 mm 1 mps 679 mmHg 65%
    05:00 +15°C° 0 mm 1 mps 679 mmHg 64%
    06:00 +14°C° 0 mm 0 mps 679 mmHg 63%
    07:00 +15°C° 0 mm 0 mps 680 mmHg 62%
    08:00 +17°C° 0 mm 0 mps 680 mmHg 52%
    09:00 +20°C° 0 mm 0 mps 681 mmHg 43%
    10:00 +24°C° 0 mm 1 mps 682 mmHg 33%
    11:00 +26°C° 0 mm 2 mps 682 mmHg 28%
    12:00 +28°C° 0 mm 4 mps 682 mmHg 23%
    13:00 +29°C° 0 mm 6 mps 683 mmHg 18%
    14:00 +29°C° 0 mm 8 mps 682 mmHg 19%
    15:00 +28°C° 0 mm 9 mps 682 mmHg 21%
    16:00 +27°C° 0 mm 10 mps 682 mmHg 23%
    17:00 +26°C° 0 mm 9 mps 682 mmHg 26%
    18:00 +23°C° 0 mm 8 mps 682 mmHg 29%
    19:00 +22°C° 0 mm 6 mps 681 mmHg 32%
    20:00 +22°C° 0 mm 5 mps 682 mmHg 32%
    21:00 +21°C° 0 mm 4 mps 682 mmHg 32%
    22:00 +21°C° 0 mm 3 mps 682 mmHg 32%
    23:00 +21°C° 0 mm 4 mps 682 mmHg 33%

    15 April, Wednesday

    Time Temperature Precipitation Wind Pressure Humidity
    00:00 +21°C° 0 mm 4 mps 682 mmHg 34%
    01:00 +21°C° 0 mm 5 mps 682 mmHg 36%
    02:00 +20°C° 0 mm 4 mps 682 mmHg 38%
    03:00 +20°C° 0 mm 4 mps 681 mmHg 41%
    04:00 +19°C° 0 mm 4 mps 681 mmHg 43%
    05:00 +19°C° 0 mm 4 mps 682 mmHg 45%
    06:00 +19°C° 0 mm 3 mps 682 mmHg 47%
    07:00 +19°C° 0 mm 3 mps 683 mmHg 49%
    08:00 +21°C° 0.1 mm 4 mps 683 mmHg 46%
    09:00 +22°C° 0.1 mm 4 mps 684 mmHg 43%
    10:00 +25°C° 0.1 mm 5 mps 684 mmHg 40%
    11:00 +26°C° 0 mm 5 mps 684 mmHg 38%
    12:00 +26°C° 0 mm 5 mps 685 mmHg 37%
    13:00 +27°C° 0 mm 6 mps 685 mmHg 36%
    14:00 +27°C° 0 mm 5 mps 684 mmHg 36%
    15:00 +27°C° 0 mm 5 mps 684 mmHg 35%
    16:00 +27°C° 0 mm 5 mps 684 mmHg 34%
    17:00 +26°C° 0 mm 5 mps 684 mmHg 41%
    18:00 +23°C° 0 mm 4 mps 684 mmHg 47%
    19:00 +22°C° 0 mm 3 mps 684 mmHg 54%
    20:00 +21°C° 0.1 mm 3 mps 684 mmHg 58%
    21:00 +20°C° 0.1 mm 3 mps 685 mmHg 62%
    22:00 +19°C° 0.1 mm 3 mps 686 mmHg 67%
    23:00 +19°C° 0.8 mm 4 mps 686 mmHg 68%
    Show more